Zurück zum Katalog

STARLINK-5534

AktivKommunikationVLEO
NORAD 56477·PAYLOAD·🇺🇸 United States

Gestartet May 10, 2023 von Vandenberg Space Force Base

Loading…

Nächste Überflüge (nächste 24 Stunden)

TLE

AktuellSource: CelesTrak SupGP

Epoche: Sep 14, 2026, 20:58 UTC

1 56477C 23064AF  26257.87409722 -.00032371  00000+0 -27129-2 0  2572
2 56477  70.0018   7.3791 0003155 272.6819 288.0584 14.98346404    12

Verfolge STARLINK-5534 in Echtzeit mit AllMySat

Download on the App Store